Regional Weather Roundup
Issued by NWS

Home | Current Version | Previous Version | Graphics & Text | Print | Product List | Glossary On
Versions: 1 2 3 4 5 6 7 8 9 10 11 12 13 14 15 16 17 18 19 20 21 22 23 24 25 26 27 28 29 30 31 32 33 34 35 36 37 38 39 40 41 42 43 44 45 46 47 48 49 50
000
ASUS43 KMPX 301210
RWRMN
WEATHER ROUNDUP FOR MINNESOTA
NATIONAL WEATHER SERVICE TWIN CITIES/CHANHASSEN MN
700 AM CDT TUE SEP 30 2014


NOTE: "FAIR" INDICATES FEW OR NO CLOUDS BELOW 12,000 FEET WITH NO
SIGNIFICANT WEATHER AND/OR OBSTRUCTIONS TO VISIBILITY. N/A MEANS
CURRENT SKY AND/OR WEATHER CONDITIONS ARE NOT AVAILABLE.

MNZ060>063-068>070-301300-
   Twin Cities Metro

CITY           SKY/WX    TMP DP  RH WIND       PRES   REMARKS
TWIN CITIES    CLOUDY    42  38  85 E14       30.08S
6HR MIN TEMP:  42; 6HR MAX TEMP:  44;

ST PAUL        CLOUDY    42  39  89 E9        30.10S
CRYSTAL        CLOUDY    44  39  82 E6        30.06F
BLAINE         CLOUDY    43  43 100 E12       30.08S
LAKEVILLE      CLOUDY    39  39 100 E15       30.07S
EDEN PRAIRIE   CLOUDY    42  40  92 E13       30.06S
6HR MIN TEMP:  42; 6HR MAX TEMP:  45;

SOUTH ST PAUL  CLOUDY    43  39  85 E10       30.08F
LAKE ELMO      CLOUDY    41  37  87 E13       30.09S
$$
MNZ001>005-007-008-013>017-022>024-027-028-301300-
   Northwest Minnesota

CITY           SKY/WX    TMP DP  RH WIND       PRES   REMARKS
BEMIDJI        CLOUDY    43  40  91 E12       30.03F
HALLOCK        PTCLDY    39  39 100 E6        29.99F
ROSEAU         CLOUDY    45  39  81 E10       30.03F
WARROAD        CLOUDY    45  39  81 SE13      30.05F
THIEF RVR FALL CLOUDY    43  41  93 SE13      29.99F
CROOKSTON      CLEAR     41  39  93 SE8       29.99F
FOSSTON        CLOUDY    41  39  93 E5        30.00F
DETROIT LAKES  CLOUDY    43  41  93 SE18G24   30.00S
PARK RAPIDS    CLOUDY    40  38  93 SE13      30.03F
MAHNOMEN       PTSUNNY   41  39  93 SE7       29.98F
$$
MNZ006-009>011-018-025>026-301300-
   North Central Minnesota

CITY           SKY/WX    TMP DP  RH WIND       PRES   REMARKS
BAUDETTE       CLOUDY    43  39  86 SE7       30.07F
FLAG ISLAND    CLOUDY    43  41  93 SE8G16    30.07F
INTL FALLS     CLOUDY    42  39  89 SE9       30.11F
6HR MIN TEMP:  41; 6HR MAX TEMP:  43;

WASKISH        CLOUDY    43  41  93 CALM      30.06F
BIG FORK       CLOUDY    43  39  87 SE7       30.10F
LONGVILLE      CLOUDY    41  39  93 SE7       30.06F
GRAND RAPIDS   CLOUDY    41  37  87 SE10G16   30.09F
CRANE LAKE     CLOUDY    39  37  93 CALM      30.15S
ORR            CLOUDY    41  37  87 SE3       30.10S
COOK           CLOUDY    41  39  93 S6        30.13S
WALKER         CLOUDY    40  39  94 SE8       30.04F
$$
MNZ012-019>021-037-301300-
   Northeast Minnesota

CITY           SKY/WX    TMP DP  RH WIND       PRES   REMARKS
DULUTH         CLOUDY    42  38  85 E9        30.12F
6HR MIN TEMP:  42; 6HR MAX TEMP:  44;

ELY            CLOUDY    39  36  87 S3        30.14S
HIBBING        CLOUDY    42  38  85 SE8       30.12S
EVELETH        CLOUDY    39  37  93 SE7       30.13F
DULUTH HARBOR  CLOUDY    46  41  81 E10       30.16R
TWO HARBORS    CLOUDY    43  36  75 E5        30.13S
SILVER BAY     MOCLDY    39  39 100 E7        30.14S
GRAND MARAIS     N/A     45  37  73 CALM      30.18S
G MARAIS ARPRT CLOUDY    37  32  81 CALM      30.16S
$$
MNZ029>031-032-039>041-046>048-054>057-064-301300-
   West Central Minnesota

CITY           SKY/WX    TMP DP  RH WIND       PRES   REMARKS
FERGUS FALLS   CLOUDY    43  41  93 SE15      29.98F
WHEATON        CLOUDY    43  39  87 E14       29.98S
MORRIS         MOCLDY    45  43  93 SE15G21   29.96F
ALEXANDRIA     CLOUDY    40  39  97 E13       30.02F FOG
ELBOW LAKE     CLOUDY    42  41  97 SE16      29.98F
WADENA         CLOUDY    39  37  93 E12       30.02S
GLENWOOD       CLOUDY    39  39 100 E13G20    30.02F FOG
APPLETON       CLOUDY    45  43  93 SE14      29.97F
BENSON         CLOUDY    43  43 100 SE9G16    29.99F
ORTONVILLE     CLOUDY    45  39  81 E14       29.95F
MADISON        PTCLDY    48  45  87 E12       29.96F
WILLMAR        CLOUDY    45  41  87 E13G18    30.02F
$$
MNZ033>034-036-042>043-049>051-058-059-301300-
   Central Minnesota

CITY           SKY/WX    TMP DP  RH WIND       PRES   REMARKS
ST CLOUD       CLOUDY    43  40  89 E7        30.06F
6HR MIN TEMP:  42; 6HR MAX TEMP:  45;

SAUK CENTRE    CLOUDY    39  39  99 E6        30.04S FOG
PAYNESVILLE    CLOUDY    39  39 100 NE12      30.04F
AITKIN         CLOUDY    43  37  81 E8        30.07F
PINE RIVER     CLOUDY    39  39 100 SE9       30.09F
BRAINERD       CLOUDY    42  40  92 E6        30.06F
STAPLES        CLOUDY    39  39 100 SE7       30.04F
LONG PRAIRIE   CLOUDY    37  37 100 E12       30.05R FOG
LITTLE FALLS   CLOUDY    39  37  93 E7        30.05F
LITCHFIELD     CLOUDY    43  43 100 E13       30.04F
BUFFALO        CLOUDY    41  38  87 E10       30.08R
MAPLE LAKE     CLOUDY    43  41  94 E6        30.07S
$$
MNZ037-044-045-052-053-301300-
   East Central Minnesota

CITY           SKY/WX    TMP DP  RH WIND       PRES   REMARKS
PRINCETON      CLOUDY    43  39  87 E7        30.08F
MORA           CLOUDY    39  36  87 E9        30.10F
CAMBRIDGE      CLOUDY    45  36  70 E6        30.07S
RUSH CITY      CLOUDY    42  39  90 E3        30.10F
MOOSE LAKE     CLOUDY    41  37  87 E8        30.09F
HINCKLEY       CLOUDY    41  41 100 E8        30.10F
CLOQUET        CLOUDY    43  39  87 E10       30.11F
MCGREGOR       CLOUDY    41  37  87 E12       30.10F
$$
MNZ071>073-080-081-089-090-097-098-301300-
   Southwest Minnesota

CITY           SKY/WX    TMP DP  RH WIND       PRES   REMARKS
MONTEVIDEO     CLOUDY    43  43 100 SE15      30.00S
GRANITE FALLS  CLOUDY    44  41  91 E10G16    30.01S
CANBY          CLOUDY    46  44  91 SE15      29.96F
MARSHALL       CLOUDY    46  39  76 SE16      29.95F
REDWOOD FALLS  CLOUDY    44  41  89 E8G20     30.00F
OLIVIA         CLOUDY    43  39  87 E12       30.00F
PIPESTONE      MOCLDY    50  46  87 SE15G23   29.90S
WINDOM         CLOUDY    46  45  93 E9        29.98S
WORTHINGTON    CLOUDY    48  46  93 E12       29.96F
JACKSON        CLOUDY    46  45  93 E10       29.98S
TRACY          CLOUDY    47  45  93 SE12G17   29.97F
SLAYTON        CLOUDY    47  46  97 E14G20    29.95F
$$
MNZ065>067-074>077-082>085-091>093-301300-
   South Central Minnesota

CITY           SKY/WX    TMP DP  RH WIND       PRES   REMARKS
MANKATO        CLOUDY    43  37  81 E14G21    30.03S
NEW ULM        CLOUDY    43  43 100 E12G17    30.01F
ST JAMES       CLOUDY    45  43  93 E10       30.01F
FAIRMONT       CLOUDY    46  43  87 E12       29.99F
GLENCOE        CLOUDY    43  39  87 E7        30.04F
FARIBAULT      CLOUDY    45  37  76 E12       30.06S
OWATONNA       CLOUDY    43  39  87 E13G20    30.04F
WASECA         CLOUDY    41  37  87 E13G18    30.05S
ALBERT LEA     CLOUDY    45  45 100 E10       30.03R FOG
$$
MNZ078>079-086>088-094>096-301300-
   Southeast Minnesota

CITY           SKY/WX    TMP DP  RH WIND       PRES   REMARKS
ROCHESTER      FOG       41  40  96 E12       30.07F VSB 1
6HR MIN TEMP:  41; 6HR MAX TEMP:  44;

RED WING       CLOUDY    43  37  81 E9        30.08F
STANTON        CLOUDY    42  39  88 E9G17     30.06S
DODGE CENTER   CLOUDY    43  41  93 E13       30.06S FOG
WINONA         CLOUDY    43  39  87 E9        30.10F
AUSTIN         CLOUDY    45  43  93 E10       30.04F FOG
PRESTON        CLOUDY    42  40  94 E6        30.07S
$$
ABBREVIATIONS USED IN REMARKS
   TC - TEMPERATURES IN CELSIUS
  WCI - WIND CHILL INDEX
   HX - HEAT INDEX
  VSB - VISIBILITY
$$



USA.gov is the U.S. government's official web portal to all federal, state and local government web resources and services.